Tracking 35048 objects as of 19-Aug-2026
HD Live streaming from Space Station
objects crossing your sky now

NOAA 16 DEB

Track NOAA 16 DEB now!
10-day predictions


NORAD ID: 41067
Int'l Code: 2000-055AA
Launch date: September 21, 2000
Source: United States (US)
Launch site: AIR FORCE WESTERN TEST RANGE (AFWTR)

Note: This is SATELLITE DEBRIS
Your satellite tracking list
Your tracking list is empty




NASA's NSSDC Master Catalog

Two Line Element Set (TLE):
1 41067U 00055AA  26231.00932338  .00000589  00000-0  30735-3 0  9993
2 41067  98.5164 261.9247 0005826  99.5094 260.6741 14.18135841553714
Source of the keplerian elements: AFSPC